Mt. Pocono, PA

2:53 AM EST on December 14, 2019 (GMT -0500)
Pocono Mountains Municipal

Weather History for KMPO - October, 2019

Change the Weather History Date:

Tuesday, October 8, 2019

  Actual Average Record
Temperature  
Mean Temperature 54 °F 50 °F  
Max Temperature 61 °F 60 °F 82 °F (2007)
Min Temperature 48 °F 41 °F 22 °F (1916)
Degree Days  
Heating Degree Days 10 15  
Month to date heating degree days 85 108  
Since 1 July heating degree days 263 376  
Cooling Degree Days 0 0  
Month to date cooling degree days 5 0  
Year to date cooling degree days 348 313  
Growing Degree Days 4 (Base 50)    
Moisture  
Dew Point 44 °F    
Average Humidity 74    
Maximum Humidity 100    
Minimum Humidity 47    
Precipitation  
Precipitation 0.10 in 0.14 in 3.86 in (2005)
Month to date precipitation 1.38 1.26  
Year to date precipitation 37.60 37.60  
Sea Level Pressure  
Sea Level Pressure 30.26 in    
Wind  
Wind Speed 7 mph ()    
Max Wind Speed 17 mph    
Max Gust Speed 24 mph    
Visibility 10.0 miles    
Events Rain    
T = Trace of Precipitation, MM = Missing Value Source: Averaged Metar Reports

Daily Weather History Graph

Daily Weather History Graph

Search for Another Location

Airport or City:

Astronomy

Oct. 08, 2019 Rise Set
Actual Time 7:05 AM EDT 6:32 PM EDT
Civil Twilight 6:37 AM EDT 6:59 PM EDT
Nautical Twilight 6:05 AM EDT 7:31 PM EDT
Astronomical Twilight 5:33 AM EDT 8:03 PM EDT
Moon 4:33 PM EDT (10/8) 1:48 AM EDT (10/8)
Length of Visible Light 12h 22m
Length of Day
11h 26m
Waxing Gibbous, 77% of the Moon is Illuminated
Oct 8
Waxing Gibbous
Oct 13
Full
Oct 21
Last Quarter
Oct 27
New
Nov 4
First Quarter

Hourly Weather History & Observations

Time (EDT) Temp. Dew Point Humidity Pressure Visibility Wind Dir Wind Speed Gust Speed Precip Events Conditions
12:53 AM 48.9 °F 48.0 °F 97% 30.21 in 10.0 mi NNW 10.4 mph - 0.00 in Rain Light Rain
1:53 AM 48.9 °F 46.9 °F 93% 30.22 in 10.0 mi North 10.4 mph - 0.03 in Rain Light Rain
2:53 AM 48.0 °F 46.9 °F 96% 30.22 in 10.0 mi Calm Calm - 0.02 in Rain Light Rain
3:53 AM 48.0 °F 46.9 °F 96% 30.23 in 10.0 mi NW 4.6 mph - 0.05 in Rain Light Rain
4:53 AM 48.9 °F 46.9 °F 93% 30.25 in 10.0 mi NW 4.6 mph - 0.00 in   Overcast
5:53 AM 48.0 °F 46.9 °F 96% 30.26 in 10.0 mi NW 4.6 mph - N/A   Mostly Cloudy
6:53 AM 48.9 °F 48.0 °F 97% 30.27 in 10.0 mi Variable 4.6 mph - N/A   Partly Cloudy
7:53 AM 50.0 °F 48.0 °F 93% 30.27 in 10.0 mi North 11.5 mph - N/A   Mostly Cloudy
8:53 AM 50.0 °F 46.9 °F 89% 30.29 in 10.0 mi North 8.1 mph - N/A   Partly Cloudy
9:53 AM 52.0 °F 45.0 °F 77% 30.30 in 10.0 mi North 15.0 mph 20.7 mph N/A   Clear
10:53 AM 55.0 °F 44.1 °F 67% 30.29 in 10.0 mi North 15.0 mph - N/A   Clear
11:53 AM 55.9 °F 41.0 °F 57% 30.29 in 10.0 mi NNE 11.5 mph - N/A   Clear
12:53 PM 57.0 °F 41.0 °F 55% 30.27 in 10.0 mi North 13.8 mph - N/A   Clear
1:53 PM 57.0 °F 41.0 °F 55% 30.26 in 10.0 mi North 12.7 mph - N/A   Clear
2:53 PM 59.0 °F 39.9 °F 49% 30.25 in 10.0 mi NNE 9.2 mph - N/A   Clear
3:53 PM 59.0 °F 39.9 °F 49% 30.24 in 10.0 mi NE 5.8 mph - N/A   Clear
4:53 PM 59.0 °F 39.0 °F 48% 30.24 in 10.0 mi NE 4.6 mph - N/A   Clear
5:53 PM 57.0 °F 39.9 °F 53% 30.25 in 10.0 mi NNE 4.6 mph - N/A   Clear
6:53 PM 53.1 °F 42.1 °F 66% 30.26 in 10.0 mi NNE 4.6 mph - N/A   Clear
7:53 PM 50.0 °F 43.0 °F 77% 30.26 in 10.0 mi ENE 4.6 mph - N/A   Clear
8:53 PM 50.0 °F 42.1 °F 74% 30.27 in 10.0 mi NNE 4.6 mph - N/A   Clear
9:53 PM 51.1 °F 42.1 °F 71% 30.26 in 10.0 mi NNE 9.2 mph - N/A   Clear
10:53 PM 51.1 °F 42.1 °F 71% 30.27 in 10.0 mi NE 9.2 mph - N/A   Clear
11:53 PM 51.1 °F 39.9 °F 66% 30.27 in 10.0 mi NE 9.2 mph - N/A   Clear